[[{"header":{"parameterUnit":"m.s-1","parameterCategory":1,"la1":30.2991,"la2":30.254,"lo1":-89.0895,"lo2":-89.0444,"dy":0.0017,"dx":0.0017,"nx":28,"ny":28,"refTime":"2024-08-18T21:00:00:Z","depth":0,"parameterNumber":2,"parameterNumberName":"U-component_of_WINDS"},"data":[0,0,0,0,0,0,0,0,0,0,0,0,0,0,0,0,0,0,0,0,0,0,0,0,0,0,0,0,0,0,0,0,0,0,0,0,0,0,0,0,0,0,0,0,0,0,0,0,0,0,0,0,0,0,0,0,0,0,-0.8333,-0.8334,0,-0.8433,-0.8434,-0.8435,-0.8399,-0.8396,-0.8394,-0.8392,-0.8497,-0.8502,-0.8507,0,0,0,0,0,0,0,0,0,0,0,0,0,-0.8113,-0.8117,-0.8333,-0.8334,-0.8335,-0.8433,-0.8434,-0.8435,-0.8399,-0.8396,-0.8393,-0.8391,-0.8496,-0.8501,-0.8507,0,0,0,0,0,0,0,0,0,0,0,0,0,-0.821,-0.8119,-0.8333,-0.8329,-0.8329,-0.8432,-0.8434,-0.8436,-0.84,-0.8396,-0.8393,-0.839,-0.8494,-0.8501,-0.8508,-0.8622,0,0,-0.8531,-0.8534,0,0,0,0,0,0,0,0,-0.8205,-0.8218,-0.8328,-0.8329,-0.833,-0.84,-0.8395,-0.8498,-0.84,-0.8373,-0.8392,-0.8388,-0.8468,-0.8477,-0.8503,-0.8627,-0.8631,-0.8531,-0.8536,-0.8539,-0.8541,0,0,0,0,0,0,0,-0.8198,-0.8214,-0.8372,-0.833,-0.8331,-0.8323,-0.8333,-0.8414,-0.8438,-0.8375,-0.8373,-0.8385,-0.8468,-0.8496,-0.8506,-0.8633,-0.8531,-0.8538,-0.8542,-0.8545,-0.8855,-0.8859,0,0,0,0,0,0,-0.8191,-0.8209,-0.8369,-0.8375,-0.8258,-0.833,-0.8341,-0.8381,-0.8437,-0.8443,-0.8388,-0.8383,-0.8485,-0.8497,-0.8509,-0.8647,-0.8539,-0.8546,-0.855,-0.8851,-0.8856,-0.886,0,0,0,0,0,0,-0.8186,-0.8205,-0.8365,-0.8291,-0.8311,-0.8337,-0.8382,-0.8385,-0.8413,-0.8447,-0.8451,-0.8413,-0.8483,-0.8499,-0.8594,-0.865,-0.8549,-0.8556,-0.8847,-0.8853,-0.8858,-0.8923,0,0,0,0,0,0,-0.818,-0.8204,-0.8247,-0.8293,-0.8315,-0.8448,-0.8386,-0.8389,-0.8426,-0.842,-0.8471,-0.8476,-0.8482,-0.8583,-0.8601,-0.8659,-0.8562,-0.8842,-0.885,-0.8856,-0.8917,-0.8931,-0.8943,0,0,0,0,0,-0.8172,-0.8262,-0.8249,-0.8269,-0.8369,-0.8451,-0.8464,-0.8468,-0.843,-0.8474,-0.8496,-0.8475,-0.864,-0.8593,-0.8613,-0.8674,-0.8839,-0.8848,-0.8856,-0.8911,-0.8928,-0.8943,0,0,0,0,0,0,-0.8223,-0.8268,-0.8254,-0.8361,-0.8402,-0.8445,-0.8501,-0.8486,-0.854,-0.8533,-0.8535,-0.8547,-0.8646,-0.8669,-0.8615,-0.8787,-0.8734,-0.8747,-0.8769,-0.8786,-0.8799,-0.8792,-0.8568,0,0,0,0,0,-0.8246,-0.8308,-0.8344,-0.8435,-0.8456,-0.8475,-0.8511,-0.8509,-0.8553,-0.8571,-0.8599,-0.8643,-0.8705,-0.8746,-0.8805,-0.8918,-0.893,-0.897,-0.8983,-0.8994,-0.9006,-0.9069,-0.9088,-0.8888,-0.8888,-0.8888,0,0,-0.8296,-0.8328,-0.8367,-0.8446,-0.8478,-0.8543,-0.849,-0.8561,-0.861,-0.8582,-0.8674,-0.8696,-0.8745,-0.8851,-0.8898,-0.8873,-0.9063,-0.9005,-0.9013,-0.902,-0.908,-0.9099,-0.9116,-0.8894,-0.8893,-0.8892,0,0,-0.842,-0.8449,-0.8529,-0.8562,-0.8611,-0.8622,-0.8641,-0.8686,-0.8699,-0.8791,-0.8772,-0.883,-0.8936,-0.8973,-0.9005,-0.9142,-0.9125,-0.9161,-0.9231,-0.9293,-0.9309,-0.9323,-0.9373,-0.9391,-0.9172,-0.9172,-0.9172,0,-0.8476,-0.8573,-0.8572,-0.8645,-0.8681,-0.8657,-0.8738,-0.877,-0.8836,-0.8862,-0.8832,-0.8965,-0.8996,-0.9111,-0.9144,-0.917,-0.9193,-0.9157,-0.9306,-0.932,-0.9333,-0.9382,-0.9401,-0.9176,-0.9176,-0.9176,-0.9175,0,-0.864,-0.8707,-0.8766,-0.8829,-0.8871,-0.8948,-0.896,-0.9003,-0.8998,-0.9013,-0.9107,-0.9143,-0.921,-0.9236,-0.9232,-0.935,-0.9333,-0.9304,-0.9252,-0.9356,-0.9402,-0.9421,-0.9182,-0.9181,-0.918,-0.9179,0,0,-0.8801,-0.8862,-0.8884,-0.8913,-0.8965,-0.9017,-0.9093,-0.9157,-0.9195,-0.924,-0.9305,-0.9395,-0.9369,-0.9406,-0.9405,-0.9459,-0.9567,-0.9424,-0.9425,-0.9451,-0.9702,-0.9725,-0.9747,-0.9555,-0.9559,-0.9561,-0.9699,0,-0.8932,-0.9064,-0.9065,-0.9188,-0.9251,-0.9228,-0.9295,-0.9334,-0.935,-0.9406,-0.9423,-0.9488,-0.9447,-0.947,-0.9522,-0.9543,-0.9618,-0.9533,-0.9618,-0.9621,-0.9609,-0.977,-0.9795,-0.9923,-0.9716,-0.9719,-0.9721,0,-0.9102,-0.9152,-0.9281,-0.9324,-0.935,-0.941,-0.9469,-0.9522,-0.9567,-0.9574,-0.9615,-0.9606,-0.9684,-0.9627,-0.9736,-0.9678,-0.9712,-0.9728,-0.9733,-0.9743,-0.968,-0.9788,-0.9963,-0.9984,-0.9749,-0.9747,-0.9745,0,-0.921,-0.931,-0.94,-0.9425,-0.9476,-0.9519,-0.9543,-0.9583,-0.9622,-0.9673,-0.9698,-0.9758,-0.9792,-0.9839,-0.9847,-0.9804,-0.9957,-0.99,-0.9967,-0.9967,-1.0003,-1.0001,-1.019,-1.0021,-1.002,-1.002,-1.002,0,-0.9357,-0.9437,-0.9449,-0.9505,-0.9595,-0.9595,-0.9684,-0.9704,-0.974,-0.98,-0.9783,-0.9841,-0.9846,-0.9905,-0.9912,-1.0002,-1.0017,-1.0026,-1.0028,-1.003,-1.0029,-1.0054,-1.0047,-1.0025,-1.0024,-1.0023,-1.0022,0,-0.9494,-0.9505,-0.9602,-0.9642,-0.9654,-0.9719,-0.9753,-0.9807,-0.982,-0.9897,-0.9915,-0.9936,-1.0005,-1.0016,-1.0097,-1.0101,-1.021,-1.0201,-1.0196,-1.0195,-1.0263,-1.0258,-1.0477,-1.0507,-1.0316,-1.0317,-1.0319,0,-0.9588,-0.9649,-0.9696,-0.9734,-0.976,-0.9822,-0.9861,-0.9863,-0.9905,-0.9959,-1.0007,-1.0073,-1.0127,-1.0238,-1.0261,-1.0323,-1.0317,-1.0389,-1.0327,-1.0327,-1.0321,-1.0319,-1.0326,-1.0403,-1.0405,-1.0407,-1.0408,0,-0.9756,-0.9758,-0.9814,-0.9873,-0.9919,-0.9965,-1.0009,-1.0042,-1.005,-1.0097,-1.0167,-1.0208,-1.029,-1.0357,-1.0418,-1.0443,-1.0429,-1.0427,-1.0446,-1.0451,-1.0446,-1.0452,-1.0232,-1.0423,-1.0421,-1.042,-1.0419,-1.0419,-0.9876,-0.993,-0.9971,-1.0034,-1.0067,-1.0108,-1.0161,-1.018,-1.0238,-1.0305,-1.0302,-1.0379,-1.0421,-1.0502,-1.0531,-1.0592,-1.0569,-1.0596,-1.0604,-1.0611,-1.0619,-1.0433,-1.0603,-1.0602,-1.0602,-1.0601,-1.0601,0,-1.0045,-1.007,-1.0128,-1.0189,-1.0239,-1.0218,-1.0265,-1.0309,-1.0376,-1.0417,-1.0469,-1.055,-1.0614,-1.0642,-1.0706,-1.0749,-1.0744,-1.0766,-1.0764,-1.0771,-1.0635,-1.0613,-1.0769,-1.0769,-1.0769,-1.0769,-1.0769,-1.0769,-1.0139,-1.0229,-1.0236,-1.0343,-1.0367,-1.0442,-1.0471,-1.0509,-1.0541,-1.0631,-1.0685,-1.0702,-1.0738,-1.0804,-1.0862,-1.0869,-1.0894,-1.092,-1.0924,-1.0797,-1.078,-1.0764,-1.0744,-1.0925,-1.0925,-1.1055,-1.1057,-1.1058]},{"header":{"parameterUnit":"m.s-1","parameterCategory":1,"la1":30.2991,"la2":30.254,"lo1":-89.0895,"lo2":-89.0444,"dy":0.0017,"dx":0.0017,"nx":28,"ny":28,"refTime":"2024-08-18T21:00:00:Z","depth":0,"parameterNumber":3,"parameterNumberName":"V-component_of_WINDS"},"data":[0,0,0,0,0,0,0,0,0,0,0,0,0,0,0,0,0,0,0,0,0,0,0,0,0,0,0,0,0,0,0,0,0,0,0,0,0,0,0,0,0,0,0,0,0,0,0,0,0,0,0,0,0,0,0,0,0,0,-3.7594,-3.7594,0,-3.7664,-3.7665,-3.7666,-3.7611,-3.7609,-3.7606,-3.7604,-3.7673,-3.7677,-3.7681,0,0,0,0,0,0,0,0,0,0,0,0,0,-3.7408,-3.7412,-3.7594,-3.7594,-3.7595,-3.7664,-3.7665,-3.7666,-3.7611,-3.7608,-3.7606,-3.7603,-3.7672,-3.7676,-3.7681,0,0,0,0,0,0,0,0,0,0,0,0,0,-3.7484,-3.7413,-3.7593,-3.7576,-3.7576,-3.7664,-3.7665,-3.7666,-3.7612,-3.7608,-3.7605,-3.7602,-3.767,-3.7676,-3.7682,-3.7789,0,0,-3.77,-3.7703,0,0,0,0,0,0,0,0,-3.748,-3.7491,-3.7578,-3.7578,-3.7577,-3.7625,-3.7625,-3.7707,-3.7613,-3.7598,-3.7604,-3.76,-3.766,-3.7666,-3.7687,-3.7793,-3.7796,-3.7701,-3.7704,-3.7707,-3.7709,0,0,0,0,0,0,0,-3.7475,-3.7488,-3.7621,-3.7579,-3.7579,-3.7564,-3.7571,-3.764,-3.7648,-3.7599,-3.7595,-3.7605,-3.7659,-3.7681,-3.7688,-3.7797,-3.7701,-3.7706,-3.771,-3.7712,-3.7992,-3.7996,0,0,0,0,0,0,-3.7472,-3.7484,-3.7619,-3.7623,-3.7519,-3.757,-3.7578,-3.7613,-3.7647,-3.7649,-3.7607,-3.7602,-3.7673,-3.7681,-3.7691,-3.7818,-3.7707,-3.7713,-3.7716,-3.7989,-3.7993,-3.7997,0,0,0,0,0,0,-3.7468,-3.7484,-3.7616,-3.7553,-3.7568,-3.7577,-3.7617,-3.7616,-3.7639,-3.7653,-3.7654,-3.763,-3.767,-3.7682,-3.7765,-3.782,-3.7715,-3.7721,-3.7984,-3.799,-3.7995,-3.8074,0,0,0,0,0,0,-3.7463,-3.7483,-3.7525,-3.7554,-3.7572,-3.7691,-3.762,-3.762,-3.765,-3.7643,-3.7674,-3.7676,-3.7669,-3.7756,-3.7771,-3.7826,-3.7726,-3.7979,-3.7987,-3.7993,-3.8067,-3.8082,-3.8095,0,0,0,0,0,-3.7456,-3.7544,-3.7528,-3.7544,-3.7625,-3.7694,-3.7704,-3.7695,-3.7655,-3.7696,-3.7705,-3.7675,-3.7811,-3.7765,-3.7782,-3.7839,-3.7976,-3.7985,-3.7993,-3.806,-3.8079,-3.8095,0,0,0,0,0,0,-3.7521,-3.7548,-3.753,-3.763,-3.766,-3.7685,-3.7737,-3.7715,-3.7757,-3.7749,-3.7735,-3.7742,-3.7829,-3.7842,-3.7791,-3.7944,-3.7887,-3.7899,-3.7933,-3.795,-3.7964,-3.7959,-3.7731,0,0,0,0,0,-3.7547,-3.7602,-3.7622,-3.7708,-3.7725,-3.7729,-3.7758,-3.7749,-3.7779,-3.7792,-3.7807,-3.7837,-3.7886,-3.7919,-3.7965,-3.8068,-3.8074,-3.8116,-3.813,-3.8141,-3.8152,-3.8206,-3.8225,-3.8026,-3.8026,-3.8025,0,0,-3.76,-3.7622,-3.7658,-3.7722,-3.7744,-3.7801,-3.774,-3.7802,-3.7844,-3.7801,-3.788,-3.7892,-3.7925,-3.8018,-3.806,-3.8032,-3.8208,-3.8152,-3.8161,-3.8166,-3.8217,-3.8236,-3.8253,-3.8032,-3.803,-3.803,0,0,-3.7727,-3.775,-3.7824,-3.7848,-3.7883,-3.7885,-3.7903,-3.7931,-3.7937,-3.8017,-3.7986,-3.8034,-3.812,-3.8144,-3.8168,-3.8303,-3.8276,-3.8319,-3.8392,-3.8445,-3.8461,-3.8475,-3.8522,-3.854,-3.8329,-3.8329,-3.8329,0,-3.779,-3.7875,-3.7864,-3.7929,-3.7958,-3.7923,-3.7996,-3.802,-3.8068,-3.8088,-3.8056,-3.8162,-3.8181,-3.828,-3.8313,-3.8333,-3.8352,-3.8315,-3.846,-3.8473,-3.8486,-3.8531,-3.8549,-3.8334,-3.8334,-3.8333,-3.8333,0,-3.7949,-3.8008,-3.8064,-3.8112,-3.8147,-3.8216,-3.8215,-3.8251,-3.8238,-3.8243,-3.8323,-3.8345,-3.8395,-3.8418,-3.8406,-3.8514,-3.8495,-3.8462,-3.8404,-3.851,-3.8552,-3.857,-3.8341,-3.8339,-3.8338,-3.8337,0,0,-3.8119,-3.816,-3.8181,-3.8202,-3.8238,-3.8283,-3.835,-3.8399,-3.843,-3.8464,-3.8519,-3.8592,-3.8561,-3.8588,-3.8578,-3.8625,-3.873,-3.8585,-3.8586,-3.8611,-3.8849,-3.8874,-3.8895,-3.8712,-3.8716,-3.8718,-3.8846,0,-3.8247,-3.8365,-3.8357,-3.8467,-3.8521,-3.8488,-3.8546,-3.8574,-3.858,-3.8625,-3.8631,-3.8683,-3.8639,-3.8655,-3.87,-3.8708,-3.8777,-3.8698,-3.8762,-3.8764,-3.8755,-3.8917,-3.8943,-3.9063,-3.8863,-3.8866,-3.8868,0,-3.8413,-3.8454,-3.857,-3.8597,-3.8619,-3.8672,-3.8716,-3.876,-3.879,-3.8791,-3.8821,-3.8803,-3.8869,-3.881,-3.8899,-3.8846,-3.8871,-3.8879,-3.8883,-3.8889,-3.8822,-3.8926,-3.9101,-3.9119,-3.8894,-3.8892,-3.889,0,-3.8524,-3.8608,-3.8688,-3.8707,-3.8741,-3.8778,-3.8794,-3.8821,-3.8851,-3.8889,-3.8908,-3.8953,-3.8978,-3.9013,-3.9007,-3.8964,-3.9098,-3.9039,-3.91,-3.91,-3.9129,-3.9127,-3.9311,-3.9147,-3.9146,-3.9146,-3.9146,0,-3.8668,-3.874,-3.8738,-3.8788,-3.8867,-3.8856,-3.8935,-3.8946,-3.897,-3.9019,-3.8993,-3.904,-3.903,-3.9076,-3.9071,-3.9146,-3.9157,-3.9159,-3.9157,-3.9161,-3.9161,-3.9177,-3.9169,-3.9151,-3.915,-3.9149,-3.9148,0,-3.8806,-3.8808,-3.8893,-3.8918,-3.8926,-3.8983,-3.9004,-3.905,-3.9053,-3.9117,-3.9131,-3.9136,-3.9189,-3.9187,-3.9247,-3.9244,-3.9335,-3.9324,-3.9326,-3.9323,-3.9384,-3.9378,-3.9584,-3.961,-3.943,-3.9431,-3.9433,0,-3.8898,-3.8953,-3.8984,-3.9016,-3.9034,-3.9086,-3.9116,-3.9108,-3.914,-3.9178,-3.9219,-3.927,-3.931,-3.9396,-3.9405,-3.945,-3.9439,-3.9508,-3.9445,-3.9448,-3.9439,-3.9436,-3.9441,-3.952,-3.9522,-3.9524,-3.9525,0,-3.906,-3.9058,-3.9104,-3.915,-3.9188,-3.9224,-3.9256,-3.9283,-3.9278,-3.9316,-3.937,-3.9401,-3.9463,-3.9513,-3.9556,-3.957,-3.9547,-3.9545,-3.9561,-3.9566,-3.9565,-3.9565,-3.9359,-3.954,-3.9538,-3.9537,-3.9537,-3.9536,-3.9177,-3.9224,-3.9253,-3.9305,-3.9329,-3.936,-3.9404,-3.9413,-3.9459,-3.9509,-3.95,-3.9561,-3.9588,-3.9644,-3.9662,-3.9709,-3.9684,-3.9708,-3.9714,-3.972,-3.9726,-3.9558,-3.9716,-3.9716,-3.9716,-3.9715,-3.9715,0,-3.9338,-3.9355,-3.9402,-3.9449,-3.9489,-3.9465,-3.9499,-3.9534,-3.9588,-3.9616,-3.9656,-3.9718,-3.9767,-3.9779,-3.9825,-3.986,-3.985,-3.9872,-3.9869,-3.9873,-3.9746,-3.9727,-3.9879,-3.9879,-3.9879,-3.9879,-3.9879,-3.9879,-3.9426,-3.9504,-3.9505,-3.9594,-3.961,-3.967,-3.9691,-3.9719,-3.9741,-3.9812,-3.9853,-3.9861,-3.9882,-3.9929,-3.9972,-3.9974,-3.9992,-4.0019,-4.0017,-3.9898,-3.9882,-3.9866,-3.9848,-4.0023,-4.0023,-4.0139,-4.014,-4.0141]}]]